This is the latest recevied weather packets stored in our database for station/object KE8AFF-13. If no packets are shown the sender has not sent any weather packets the latest 10 day(s).
| Time | Temp. | Humidity | Pressure | Rain* | Wind** | Luminosity | Snow |
|---|---|---|---|---|---|---|---|
| 1777309875 | 21.67° C | 61% | 1016.2 hPa | 0 mm | - | 661 W/m² | - |
| 1777309574 | 21.11° C | 61% | 1016.5 hPa | 0 mm | - | 697 W/m² | - |
| 1777309270 | 21.11° C | 63% | 1016.2 hPa | 0 mm | - | 711 W/m² | - |
| 1777308969 | 20.56° C | 65% | 1016.3 hPa | 0 mm | - | 682 W/m² | - |
| 1777308664 | 20.56° C | 63% | 1016.3 hPa | 0 mm | - | 562 W/m² | - |
| 1777308359 | 20.56° C | 64% | 1016.7 hPa | 0 mm | - | 383 W/m² | - |
| 1777308054 | 20.56° C | 66% | 1016.5 hPa | 0 mm | - | 631 W/m² | - |
| 1777307753 | 20.56° C | 65% | 1017 hPa | 0 mm | - | 713 W/m² | - |
| 1777307450 | 20.56° C | 65% | 1017.1 hPa | 0 mm | - | 716 W/m² | - |
| 1777307147 | 20.56° C | 65% | 1017 hPa | 0 mm | - | 572 W/m² | - |
| 1777306844 | 20° C | 67% | 1016.8 hPa | 0 mm | - | 473 W/m² | - |
| 1777306541 | 19.44° C | 68% | 1017 hPa | 0 mm | - | 639 W/m² | - |
| 1777306237 | 20° C | 66% | 1017 hPa | 0 mm | - | 678 W/m² | - |
| 1777305937 | 20° C | 66% | 1016.8 hPa | 0 mm | - | 652 W/m² | - |
| 1777305634 | 19.44° C | 68% | 1017 hPa | 0 mm | - | 625 W/m² | - |
| 1777305330 | 18.89° C | 69% | 1017 hPa | 0 mm | - | 639 W/m² | - |
| 1777305030 | 19.44° C | 69% | 1017.1 hPa | 0 mm | - | 617 W/m² | - |
| 1777304730 | 18.33° C | 71% | 1017.1 hPa | 0 mm | - | 615 W/m² | - |
| 1777304427 | 18.33° C | 70% | 1017.1 hPa | 0 mm | - | 531 W/m² | - |
| 1777304125 | 18.33° C | 70% | 1017.2 hPa | 0 mm | - | 674 W/m² | - |
| 1777303821 | 18.33° C | 71% | 1017.2 hPa | 0 mm | - | 767 W/m² | - |
| 1777303518 | 17.78° C | 73% | 1017.5 hPa | 0 mm | - | 691 W/m² | - |
| 1777303216 | 17.22° C | 73% | 1017.4 hPa | 0 mm | - | 673 W/m² | - |
| 1777302914 | 17.78° C | 73% | 1017.5 hPa | 0 mm | - | 626 W/m² | - |
| 1777302610 | 17.22° C | 74% | 1017.6 hPa | 0 mm | - | 701 W/m² | - |
* Rain latest hour (hover to see other rain measurements)
** Current wind speed in m/s (hover to see current wind gust speed)